BAW28K EGLL-KSFO

Flight info

Callsign BAW28K
Flight time N/A
Altitude 34000
Route CPT L9 DIDZA N14 OKTAD DCT MEDOG DCT KRAGY DCT PEMOB DCT VATRY DCT DIRUM DCT CON DCT SUNOT/M084F340 DCT 59N020W 61N030W 61N040W 62N050W DCT EMBOK DCT KAGLY/N0479F340 DCT DUTUM/N0484F360 DCT YFB DCT BODRA DCT 60N089W 55N101W DCT TAGOT DCT WALSH/N0471F380 DCT COUTS DCT BKE DCT RBL/N0472F390 DCT MRRLO BDEGA4
Aircraft B77W/H-SDE1E2E3FGHIJ2J3J4J5M1RWXY/LB1D1

Departure

Time 2026-05-08 08:05
Airport London Heathrow Airport (EGLL)

Arrival

Time N/A
Airport San Francisco International Airport (KSFO)
Time Latitude Longitude Altitude Speed Heading
2026-05-08 07:22 51.47114 -0.48240 95 ft 0 kts 90°
2026-05-08 07:51 51.47114 -0.48245 91 ft 2 kts 90°
2026-05-08 07:52 51.47114 -0.48275 93 ft 3 kts 90°
2026-05-08 07:52 51.47114 -0.48305 91 ft 3 kts 97°
2026-05-08 07:52 51.47119 -0.48334 92 ft 3 kts 126°
2026-05-08 07:52 51.47133 -0.48354 95 ft 3 kts 162°
2026-05-08 07:53 51.47152 -0.48359 94 ft 3 kts 179°
2026-05-08 07:53 51.47164 -0.48360 91 ft 2 kts 180°
2026-05-08 07:53 51.47168 -0.48360 94 ft 0 kts 180°
2026-05-08 07:59 51.47166 -0.48360 95 ft 1 kts 180°
2026-05-08 07:59 51.47148 -0.48360 95 ft 5 kts 180°
2026-05-08 07:59 51.47100 -0.48360 91 ft 7 kts 180°
2026-05-08 08:00 51.47047 -0.48360 95 ft 7 kts 179°
2026-05-08 08:00 51.46995 -0.48358 94 ft 7 kts 179°
2026-05-08 08:00 51.46942 -0.48357 94 ft 7 kts 179°
2026-05-08 08:00 51.46889 -0.48356 94 ft 8 kts 179°
2026-05-08 08:01 51.46835 -0.48355 94 ft 8 kts 179°
2026-05-08 08:01 51.46779 -0.48355 91 ft 8 kts 182°
2026-05-08 08:01 51.46742 -0.48411 92 ft 8 kts 260°
2026-05-08 08:01 51.46741 -0.48507 91 ft 10 kts 268°
2026-05-08 08:02 51.46740 -0.48616 91 ft 10 kts 269°
2026-05-08 08:02 51.46735 -0.48704 95 ft 7 kts 245°
2026-05-08 08:02 51.46691 -0.48743 96 ft 8 kts 188°
2026-05-08 08:02 51.46639 -0.48754 93 ft 8 kts 193°
2026-05-08 08:03 51.46588 -0.48776 94 ft 8 kts 195°
2026-05-08 08:03 51.46537 -0.48787 93 ft 8 kts 175°
2026-05-08 08:03 51.46492 -0.48744 95 ft 8 kts 128°
2026-05-08 08:03 51.46479 -0.48663 96 ft 8 kts 92°
2026-05-08 08:04 51.46479 -0.48620 95 ft 0 kts 90°
2026-05-08 08:04 51.46479 -0.48605 94 ft 9 kts 90°
2026-05-08 08:04 51.46478 -0.48145 92 ft 76 kts 90°
2026-05-08 08:04 51.46481 -0.46935 93 ft 138 kts 90°
2026-05-08 08:05 51.46491 -0.45135 104 ft 184 kts 89°
2026-05-08 08:05 51.46502 -0.43010 548 ft 191 kts 90°
2026-05-08 08:05 51.46307 -0.40823 816 ft 212 kts 117°
2026-05-08 08:05 51.45202 -0.39345 1289 ft 215 kts 166°
2026-05-08 08:06 51.43772 -0.39333 2221 ft 201 kts 192°
2026-05-08 08:06 51.42483 -0.40424 2442 ft 222 kts 220°
2026-05-08 08:06 51.41335 -0.42158 2706 ft 237 kts 223°
2026-05-08 08:06 51.40114 -0.44082 3134 ft 248 kts 222°
2026-05-08 08:07 51.38869 -0.46005 3651 ft 255 kts 222°
2026-05-08 08:07 51.37584 -0.47981 4290 ft 258 kts 221°
2026-05-08 08:07 51.36256 -0.49973 4916 ft 263 kts 221°
2026-05-08 08:07 51.34907 -0.52025 5382 ft 273 kts 222°
2026-05-08 08:08 51.33526 -0.54097 5525 ft 269 kts 221°
2026-05-08 08:08 51.32190 -0.56077 5770 ft 255 kts 222°
2026-05-08 08:08 51.31131 -0.58365 5974 ft 265 kts 249°
2026-05-08 08:08 51.31024 -0.61287 5980 ft 271 kts 284°
2026-05-08 08:09 51.31929 -0.63948 5985 ft 276 kts 303°
2026-05-08 08:09 51.32942 -0.66585 6002 ft 280 kts 296°
2026-05-08 08:09 51.33833 -0.69354 5994 ft 279 kts 295°
2026-05-08 08:09 51.34678 -0.72135 5984 ft 278 kts 294°
2026-05-08 08:10 51.35510 -0.74920 5983 ft 276 kts 294°
2026-05-08 08:10 51.36331 -0.77689 5979 ft 275 kts 294°
2026-05-08 08:10 51.37145 -0.80452 5982 ft 274 kts 294°
2026-05-08 08:10 51.37952 -0.83203 5979 ft 273 kts 294°
2026-05-08 08:11 51.38757 -0.85952 5976 ft 272 kts 294°
2026-05-08 08:11 51.39560 -0.88700 5983 ft 272 kts 294°
2026-05-08 08:11 51.40363 -0.91452 5977 ft 273 kts 294°
2026-05-08 08:11 51.41167 -0.94213 6286 ft 275 kts 293°
2026-05-08 08:12 51.41980 -0.97012 6916 ft 278 kts 292°
2026-05-08 08:12 51.42786 -0.99788 7533 ft 280 kts 292°
2026-05-08 08:12 51.43609 -1.02625 8185 ft 281 kts 292°
2026-05-08 08:12 51.44436 -1.05477 8829 ft 283 kts 292°
2026-05-08 08:13 51.45265 -1.08344 9453 ft 285 kts 292°
2026-05-08 08:13 51.46101 -1.11234 10087 ft 287 kts 292°
2026-05-08 08:13 51.46951 -1.14177 10489 ft 298 kts 292°
2026-05-08 08:13 51.47848 -1.17302 10632 ft 318 kts 292°
2026-05-08 08:14 51.48882 -1.20578 10794 ft 341 kts 299°
2026-05-08 08:14 51.50324 -1.23742 10982 ft 363 kts 309°
2026-05-08 08:14 51.52165 -1.26628 11438 ft 375 kts 316°
2026-05-08 08:14 51.54129 -1.29479 12079 ft 383 kts 315°
2026-05-08 08:15 51.56070 -1.32350 12913 ft 385 kts 315°
2026-05-08 08:15 51.58035 -1.35302 13787 ft 388 kts 314°
2026-05-08 08:15 51.59924 -1.38419 14533 ft 390 kts 308°
2026-05-08 08:15 51.61580 -1.41964 15273 ft 393 kts 301°
2026-05-08 08:16 51.62937 -1.45719 15977 ft 396 kts 296°
2026-05-08 08:16 51.64218 -1.49690 16690 ft 400 kts 295°
2026-05-08 08:16 51.65507 -1.53681 17408 ft 404 kts 296°
2026-05-08 08:16 51.66827 -1.57721 18150 ft 408 kts 296°
2026-05-08 08:17 51.68166 -1.61792 18799 ft 413 kts 296°
2026-05-08 08:17 51.69420 -1.65966 19416 ft 415 kts 290°
2026-05-08 08:17 51.70331 -1.70385 20001 ft 417 kts 283°
2026-05-08 08:17 51.70933 -1.74982 20616 ft 419 kts 276°
2026-05-08 08:18 51.71253 -1.79672 21203 ft 423 kts 275°
2026-05-08 08:18 51.71567 -1.84405 21768 ft 427 kts 276°
2026-05-08 08:18 51.72112 -1.89168 22327 ft 433 kts 282°
2026-05-08 08:18 51.72826 -1.93840 22876 ft 437 kts 282°
2026-05-08 08:19 51.73566 -1.98612 23504 ft 439 kts 283°
2026-05-08 08:19 51.74305 -2.03415 24032 ft 442 kts 283°
2026-05-08 08:19 51.75033 -2.08221 24626 ft 441 kts 283°
2026-05-08 08:19 51.75753 -2.13047 25139 ft 443 kts 283°
2026-05-08 08:20 51.76471 -2.17900 25560 ft 447 kts 283°
2026-05-08 08:20 51.77191 -2.22807 26012 ft 449 kts 284°
2026-05-08 08:20 51.77910 -2.27721 26494 ft 451 kts 284°
2026-05-08 08:20 51.78630 -2.32662 26994 ft 452 kts 284°
2026-05-08 08:21 51.79352 -2.37623 27492 ft 454 kts 284°
2026-05-08 08:21 51.80075 -2.42614 27915 ft 456 kts 284°
2026-05-08 08:21 51.80795 -2.47593 28426 ft 455 kts 284°
2026-05-08 08:21 51.81514 -2.52583 28921 ft 455 kts 284°
2026-05-08 08:22 51.82225 -2.57572 29301 ft 457 kts 283°
2026-05-08 08:22 51.82916 -2.62601 29678 ft 458 kts 283°
2026-05-08 08:22 51.83585 -2.67577 30167 ft 457 kts 283°
2026-05-08 08:22 51.84252 -2.72576 30680 ft 452 kts 283°
2026-05-08 08:23 51.84912 -2.77531 31248 ft 448 kts 283°
2026-05-08 08:23 51.85564 -2.82430 31772 ft 444 kts 283°
2026-05-08 08:23 51.86213 -2.87305 32137 ft 444 kts 283°
2026-05-08 08:24 51.87516 -2.97124 32088 ft 443 kts 283°
2026-05-08 08:24 51.88795 -3.06827 32078 ft 438 kts 283°
2026-05-08 08:25 51.90052 -3.16426 32093 ft 439 kts 283°
2026-05-08 08:25 51.91312 -3.26113 32086 ft 440 kts 283°
2026-05-08 08:26 51.92571 -3.35869 32068 ft 441 kts 282°
2026-05-08 08:26 51.93819 -3.45595 32058 ft 441 kts 282°
2026-05-08 08:27 51.95053 -3.55283 32052 ft 441 kts 282°
2026-05-08 08:27 51.96293 -3.65028 32053 ft 440 kts 282°
2026-05-08 08:28 51.97527 -3.74757 32053 ft 440 kts 282°
2026-05-08 08:28 51.99281 -3.84257 32065 ft 440 kts 291°
2026-05-08 08:29 52.01536 -3.91666 32050 ft 441 kts 298°
2026-05-08 08:29 52.04593 -4.00300 32046 ft 441 kts 297°
2026-05-08 08:30 52.07648 -4.08954 32045 ft 441 kts 297°
2026-05-08 08:30 52.12195 -4.22006 32053 ft 442 kts 297°
2026-05-08 08:31 52.15192 -4.30675 32052 ft 442 kts 297°
2026-05-08 08:31 52.18203 -4.39415 32049 ft 443 kts 297°
2026-05-08 08:32 52.21211 -4.48176 32067 ft 443 kts 296°
2026-05-08 08:32 52.24216 -4.56958 32047 ft 442 kts 296°
2026-05-08 08:33 52.27207 -4.65727 32063 ft 442 kts 296°
2026-05-08 08:33 52.30187 -4.74500 32040 ft 441 kts 296°
2026-05-08 08:34 52.33156 -4.83268 32046 ft 441 kts 296°
2026-05-08 08:34 52.36119 -4.92051 32049 ft 441 kts 296°
2026-05-08 08:35 52.39072 -5.00836 32058 ft 441 kts 295°
2026-05-08 08:35 52.42028 -5.09662 32074 ft 441 kts 295°
2026-05-08 08:36 52.44959 -5.18443 32059 ft 442 kts 295°
2026-05-08 08:36 52.47903 -5.27297 32062 ft 443 kts 295°
2026-05-08 08:37 52.50847 -5.36184 32059 ft 443 kts 295°
2026-05-08 08:37 52.53787 -5.45085 32057 ft 443 kts 295°
2026-05-08 08:38 52.56870 -5.53855 32057 ft 444 kts 299°
2026-05-08 08:38 52.60256 -5.62378 32058 ft 445 kts 299°
2026-05-08 08:39 52.63641 -5.70908 32078 ft 444 kts 299°
2026-05-08 08:39 52.66983 -5.79412 32064 ft 444 kts 299°
2026-05-08 08:40 52.70326 -5.87972 32048 ft 444 kts 298°
2026-05-08 08:40 52.73658 -5.96540 32052 ft 443 kts 298°
2026-05-08 08:41 52.76979 -6.05104 32054 ft 443 kts 298°
2026-05-08 08:41 52.80298 -6.13696 32050 ft 443 kts 298°
2026-05-08 08:42 52.83618 -6.22314 32050 ft 444 kts 298°
2026-05-08 08:42 52.86933 -6.30950 32062 ft 445 kts 297°
2026-05-08 08:43 52.90222 -6.39552 32057 ft 444 kts 297°
2026-05-08 08:43 52.93522 -6.48211 32043 ft 444 kts 297°
2026-05-08 08:44 52.96819 -6.56892 32040 ft 444 kts 297°
2026-05-08 08:44 53.00115 -6.65578 32055 ft 445 kts 298°
2026-05-08 08:45 53.03692 -6.74018 32048 ft 448 kts 301°
2026-05-08 08:45 53.07376 -6.82385 32036 ft 449 kts 301°
2026-05-08 08:46 53.11046 -6.90775 32044 ft 448 kts 300°
2026-05-08 08:46 53.14689 -6.99180 32045 ft 448 kts 300°
2026-05-08 08:47 53.18322 -7.07610 32044 ft 447 kts 300°
2026-05-08 08:47 53.21919 -7.15987 32042 ft 447 kts 300°
2026-05-08 08:48 53.25535 -7.24437 32047 ft 447 kts 300°
2026-05-08 08:48 53.29147 -7.32902 32042 ft 447 kts 300°
2026-05-08 08:49 53.32756 -7.41388 32045 ft 447 kts 299°
2026-05-08 08:49 53.36356 -7.49882 32045 ft 447 kts 299°
2026-05-08 08:50 53.39956 -7.58407 32042 ft 447 kts 299°
2026-05-08 08:50 53.43542 -7.66925 32044 ft 447 kts 299°
2026-05-08 08:51 53.47121 -7.75457 32040 ft 447 kts 299°
2026-05-08 08:51 53.50702 -7.84023 32052 ft 449 kts 298°
2026-05-08 08:52 53.54258 -7.92556 32049 ft 448 kts 298°
2026-05-08 08:52 53.57830 -8.01157 32041 ft 448 kts 298°
2026-05-08 08:53 53.61388 -8.09754 32045 ft 447 kts 298°